{"data":{"norad_id":51779,"epoch":"2026-05-24T23:12:43.557120Z","epoch_age_seconds":68054,"freshness":"FRESH","line1":"1 51779U 22017M   26144.96717080 -.00000455  00000+0 -10493-4 0  9992","line2":"2 51779  53.2130 356.7440 0001525  97.2198 262.8967 15.08842514234088","mean_motion":15.08842514,"eccentricity":0.0001525,"inclination_deg":53.213,"raan_deg":356.744,"arg_perigee_deg":97.2198,"mean_anomaly_deg":262.8967,"bstar":-1.0493e-5,"rev_number":23408,"period_min":95.437395661825,"perigee_km":538.68072909505,"apogee_km":540.79068026998,"semimajor_km":6917.8727046825,"source":"CELESTRAK","updated_at":"2026-05-25T13:38:16.951960Z"}}